TimeEST,TemperatureF,Dew PointF,Humidity,Sea Level PressureIn,VisibilityMPH,Wind Direction,Wind SpeedMPH,Gust SpeedMPH,PrecipitationIn,Events,Conditions,WindDirDegrees,DateUTC
12:52 AM,34.0,28.0,79,30.53,10.0,WSW,5.8,-,N/A,,Clear,250,2013-01-10 05:52:00
1:52 AM,33.1,28.0,82,30.54,10.0,WSW,4.6,-,N/A,,Clear,250,2013-01-10 06:52:00
2:52 AM,28.9,27.0,92,30.53,10.0,Calm,Calm,-,N/A,,Clear,0,2013-01-10 07:52:00
3:52 AM,28.9,26.1,89,30.53,10.0,Calm,Calm,-,N/A,,Clear,0,2013-01-10 08:52:00
4:52 AM,28.9,27.0,92,30.52,9.0,Calm,Calm,-,N/A,,Clear,0,2013-01-10 09:52:00
5:52 AM,28.9,27.0,92,30.54,7.0,Calm,Calm,-,N/A,,Clear,0,2013-01-10 10:52:00
6:52 AM,26.6,24.8,93,30.51,6.0,Calm,Calm,-,N/A,,Clear,0,2013-01-10 11:52:00
7:52 AM,27.0,26.1,96,30.57,7.0,Calm,Calm,-,N/A,,Clear,0,2013-01-10 12:52:00
8:52 AM,28.9,26.1,89,30.59,9.0,ESE,3.5,-,N/A,,Clear,110,2013-01-10 13:52:00
9:52 AM,34.0,28.9,82,30.58,10.0,East,6.9,-,N/A,,Clear,100,2013-01-10 14:52:00
10:52 AM,36.0,28.0,73,30.59,10.0,ESE,10.4,-,N/A,,Clear,110,2013-01-10 15:52:00
11:52 AM,37.0,27.0,67,30.54,10.0,ESE,11.5,-,N/A,,Clear,110,2013-01-10 16:52:00
12:52 PM,37.9,27.0,65,30.50,10.0,ESE,11.5,-,N/A,,Clear,110,2013-01-10 17:52:00
2:52 PM,39.2,28.4,65,30.42,10.0,ESE,9.2,-,N/A,,Clear,110,2013-01-10 19:52:00
3:52 PM,39.0,30.0,70,30.45,10.0,ESE,9.2,-,N/A,,Clear,120,2013-01-10 20:52:00
4:52 PM,37.9,28.9,70,30.42,10.0,ESE,11.5,-,N/A,,Partly Cloudy,110,2013-01-10 21:52:00
5:52 PM,37.0,28.9,73,30.40,10.0,ESE,9.2,-,N/A,,Mostly Cloudy,110,2013-01-10 22:52:00
6:52 PM,37.9,28.0,68,30.39,10.0,ESE,12.7,-,N/A,,Overcast,120,2013-01-10 23:52:00
7:52 PM,37.0,28.0,70,30.36,10.0,ESE,10.4,-,N/A,,Mostly Cloudy,120,2013-01-11 00:52:00
8:52 PM,37.9,28.0,68,30.32,10.0,ESE,12.7,-,N/A,,Overcast,120,2013-01-11 01:52:00
9:52 PM,39.0,27.0,62,30.27,10.0,SE,13.8,-,N/A,,Overcast,130,2013-01-11 02:52:00
10:52 PM,39.9,25.0,55,30.23,10.0,SE,15.0,-,N/A,,Overcast,130,2013-01-11 03:52:00
11:52 PM,39.9,27.0,60,30.20,10.0,SE,12.7,-,N/A,,Mostly Cloudy,140,2013-01-11 04:52:00